Weather History for Edinburg, TX

Change the Weather History Date:

Thursday, May 10, 2012

  Actual Average (KMFE) Record (KMFE)
Temperature  
Mean Temperature 82 °F 81 °F  
Max Temperature 91 °F 90 °F 102 °F (2006)
Min Temperature 72 °F 71 °F 54 °F (1961)
Degree Days  
Heating Degree Days 0 0  
Month to date heating degree days 0  
Since 1 July heating degree days 579  
Cooling Degree Days 16 16  
Month to date cooling degree days 149  
Year to date cooling degree days 880  
Growing Degree Days 32 (Base 50)    
Moisture  
Dew Point 71 °F    
Average Humidity 74    
Maximum Humidity 93    
Minimum Humidity 47    
Precipitation  
Precipitation 0.01 in 0.07 in 0.61 in (1993)
Month to date precipitation 0.70  
Year to date precipitation 5.23  
Sea Level Pressure  
Sea Level Pressure 29.78 in    
Wind  
Wind Speed 8 mph (SE)    
Max Wind Speed 23 mph    
Max Gust Speed 28 mph    
Visibility 7 miles    
Events Rain , Thunderstorm    
T = Trace of Precipitation, MM = Missing Value Source: NWS Daily Summary

Daily Weather History Graph

Daily Weather History Graph

Search for Another Location

Airport:

Trip Planner

Search our weather history database for the weather conditions in past years. The results will help you decide how hot, cold, wet, or windy it might be!

Date:

Astronomy

May. 10, 2012 Rise Set
Actual Time 6:48 AM CDT 8:09 PM CDT
Civil Twilight 6:23 AM CDT 8:34 PM CDT
Nautical Twilight 5:53 AM CDT 9:04 PM CDT
Astronomical Twilight 5:23 AM CDT 9:35 PM CDT
Moon 12:07 AM CDT (5/10) 11:14 AM CDT (5/10)
Length of Visible Light 14h 11m
Length of Day
13h 21m
Waning Gibbous, 73% of the Moon is Illuminated
May 10
Waning Gibbous
May 12
Last Quarter
May 20
New
May 28
First Quarter
Jun 4
Full

Hourly Weather History & Observations

Time (CDT) Temp. Heat Index Dew Point Humidity Pressure Visibility Wind Dir Wind Speed Gust Speed Precip Events Conditions
12:15 AM 72.5 °F - 69.8 °F 91% 29.88 in 7.0 mi NNW 3.5 mph - N/A   Mostly Cloudy
12:35 AM 72.1 °F - 69.4 °F 91% 29.87 in 5.0 mi NNW 3.5 mph - N/A   Scattered Clouds
12:55 AM 72.3 °F - 69.8 °F 92% 29.87 in 5.0 mi Calm Calm - N/A   Scattered Clouds
1:15 AM 72.5 °F - 69.8 °F 91% 29.87 in 5.0 mi Calm Calm - N/A   Mostly Cloudy
1:35 AM 72.7 °F - 70.2 °F 92% 29.87 in 5.0 mi Calm Calm - N/A   Mostly Cloudy
1:55 AM 72.5 °F - 70.0 °F 92% 29.87 in 5.0 mi Calm Calm - N/A   Scattered Clouds
2:15 AM 72.3 °F - 69.8 °F 92% 29.86 in 5.0 mi Calm Calm - N/A   Scattered Clouds
2:35 AM 72.5 °F - 69.8 °F 91% 29.86 in 5.0 mi Calm Calm - N/A   Mostly Cloudy
2:55 AM 72.3 °F - 70.0 °F 92% 29.85 in 5.0 mi Calm Calm - N/A   Scattered Clouds
3:15 AM 72.1 °F - 69.8 °F 92% 29.86 in 5.0 mi Calm Calm - N/A   Mostly Cloudy
3:35 AM 72.5 °F - 70.2 °F 92% 29.87 in 5.0 mi Calm Calm - N/A   Overcast
3:55 AM 72.9 °F - 70.7 °F 93% 29.86 in 5.0 mi Calm Calm - N/A   Overcast
4:15 AM 73.4 °F - 70.9 °F 92% 29.85 in 4.0 mi Calm Calm - N/A   Overcast
4:35 AM 73.8 °F - 71.6 °F 93% 29.85 in 4.0 mi Calm Calm - N/A Rain , Thunderstorm Light Thunderstorms and Rain
4:55 AM 74.8 °F - 72.5 °F 92% 29.85 in 4.0 mi NE 5.8 mph - 0.01 in Rain , Thunderstorm Light Thunderstorms and Rain
5:15 AM 75.2 °F - 72.9 °F 92% 29.84 in 2.5 mi NE 5.8 mph - N/A Thunderstorm Overcast
5:35 AM 75.4 °F - 73.2 °F 93% 29.84 in 2.5 mi East 5.8 mph - N/A   Overcast
5:55 AM 75.6 °F - 73.2 °F 92% 29.83 in 3.0 mi East 9.2 mph - N/A   Scattered Clouds
6:15 AM 75.6 °F - 73.4 °F 93% 29.83 in 4.0 mi ESE 9.2 mph - N/A   Scattered Clouds
6:35 AM 75.7 °F - 73.4 °F 92% 29.82 in 5.0 mi ESE 10.4 mph - N/A   Scattered Clouds
6:55 AM 75.9 °F - 73.2 °F 91% 29.82 in 7.0 mi ESE 13.8 mph - N/A   Clear
7:15 AM 76.3 °F - 73.0 °F 90% 29.82 in 5.0 mi ESE 13.8 mph - N/A   Clear
7:35 AM 76.5 °F - 73.0 °F 89% 29.82 in 3.0 mi ESE 12.7 mph - N/A   Clear
7:55 AM 77.0 °F - 73.4 °F 89% 29.82 in 3.0 mi SE 11.5 mph - N/A   Mostly Cloudy
8:15 AM 77.2 °F - 73.6 °F 89% 29.83 in 5.0 mi SE 10.4 mph - N/A   Mostly Cloudy
8:35 AM 77.7 °F - 73.8 °F 88% 29.83 in 3.0 mi SE 11.5 mph - N/A   Overcast
8:55 AM 78.1 °F - 74.3 °F 88% 29.83 in 5.0 mi SE 10.4 mph - N/A   Scattered Clouds
9:15 AM 79.3 °F - 74.3 °F 84% 29.84 in 7.0 mi SE 13.8 mph - N/A   Scattered Clouds
9:35 AM 80.2 °F 85.2 °F 74.5 °F 83% 29.84 in 10.0 mi SE 11.5 mph 23.0 mph N/A   Mostly Cloudy
9:55 AM 81.1 °F 86.6 °F 74.1 °F 79% 29.85 in 10.0 mi SE 13.8 mph 18.4 mph N/A   Mostly Cloudy
10:15 AM 81.0 °F 86.2 °F 73.9 °F 79% 29.85 in 10.0 mi SE 9.2 mph - N/A   Overcast
10:35 AM 82.0 °F 87.9 °F 73.8 °F 76% 29.84 in 10.0 mi SE 12.7 mph - N/A   Mostly Cloudy
10:55 AM 82.4 °F 88.4 °F 73.9 °F 75% 29.83 in 10.0 mi SE 12.7 mph - N/A   Mostly Cloudy
11:15 AM 84.6 °F 91.4 °F 73.4 °F 69% 29.82 in 5.0 mi SE 12.7 mph 23.0 mph N/A   Haze
11:35 AM 85.5 °F 93.0 °F 73.8 °F 68% 29.82 in 7.0 mi SE 17.3 mph 24.2 mph N/A   Mostly Cloudy
11:55 AM 85.6 °F 92.2 °F 72.5 °F 65% 29.81 in 7.0 mi SSE 15.0 mph 21.9 mph N/A   Mostly Cloudy
12:15 PM 86.0 °F 92.2 °F 72.1 °F 63% 29.80 in 7.0 mi SSE 15.0 mph 23.0 mph N/A   Mostly Cloudy
12:35 PM 86.5 °F 92.9 °F 72.3 °F 62% 29.79 in 7.0 mi SE 18.4 mph 23.0 mph N/A   Mostly Cloudy
12:55 PM 87.1 °F 94.1 °F 72.7 °F 62% 29.77 in 7.0 mi SSE 12.7 mph 23.0 mph N/A   Mostly Cloudy
1:15 PM 88.9 °F 95.1 °F 71.6 °F 56% 29.76 in 5.0 mi SSE 18.4 mph 23.0 mph N/A   Haze
1:35 PM 88.7 °F 94.8 °F 71.1 °F 56% 29.75 in 5.0 mi SSE 16.1 mph 21.9 mph N/A   Haze
1:55 PM 87.8 °F 93.4 °F 70.9 °F 57% 29.74 in 5.0 mi SSE 16.1 mph 24.2 mph N/A   Haze
2:15 PM 89.4 °F 95.3 °F 70.9 °F 54% 29.74 in 7.0 mi SSE 18.4 mph 21.9 mph N/A   Mostly Cloudy
2:35 PM 90.0 °F 95.4 °F 70.0 °F 52% 29.73 in 7.0 mi SSE 17.3 mph 23.0 mph N/A   Mostly Cloudy
2:55 PM 89.2 °F 94.5 °F 70.0 °F 53% 29.73 in 7.0 mi SSE 13.8 mph 24.2 mph N/A   Mostly Cloudy
3:15 PM 89.4 °F 94.0 °F 69.3 °F 51% 29.73 in 7.0 mi SE 16.1 mph 23.0 mph N/A   Mostly Cloudy
3:35 PM 88.7 °F 93.0 °F 68.9 °F 52% 29.72 in 7.0 mi SSE 13.8 mph - N/A   Overcast
3:55 PM 89.2 °F 93.2 °F 68.2 °F 50% 29.71 in 7.0 mi SSE 16.1 mph 21.9 mph N/A   Overcast
4:15 PM 91.2 °F 96.5 °F 69.6 °F 49% 29.69 in 7.0 mi SE 17.3 mph 26.5 mph N/A   Scattered Clouds
4:35 PM 91.0 °F 95.2 °F 68.2 °F 47% 29.69 in 7.0 mi SSE 19.6 mph 24.2 mph N/A   Clear
4:55 PM 90.5 °F 95.1 °F 68.9 °F 49% 29.68 in 7.0 mi SE 20.7 mph 26.5 mph N/A   Scattered Clouds
5:15 PM 90.9 °F 94.8 °F 67.8 °F 47% 29.67 in 7.0 mi SE 23.0 mph 27.6 mph N/A   Scattered Clouds
5:35 PM 90.5 °F 94.2 °F 67.6 °F 47% 29.67 in 7.0 mi SSE 18.4 mph 25.3 mph N/A   Scattered Clouds
5:55 PM 89.8 °F 92.9 °F 67.1 °F 47% 29.67 in 7.0 mi SE 19.6 mph 24.2 mph N/A   Clear
6:15 PM 89.1 °F 93.3 °F 68.5 °F 51% 29.67 in 7.0 mi SSE 17.3 mph 26.5 mph N/A   Clear
6:35 PM 88.2 °F 91.3 °F 67.5 °F 50% 29.67 in 7.0 mi SE 19.6 mph 24.2 mph N/A   Clear
6:55 PM 87.3 °F 91.2 °F 68.5 °F 54% 29.67 in 7.0 mi SE 15.0 mph 25.3 mph N/A   Clear
7:15 PM 86.0 °F 89.4 °F 68.0 °F 55% 29.67 in 7.0 mi SSE 17.3 mph 25.3 mph N/A   Clear
7:35 PM 85.1 °F 89.4 °F 70.0 °F 60% 29.67 in 7.0 mi SE 16.1 mph 19.6 mph N/A   Clear
7:55 PM 84.2 °F 89.0 °F 70.7 °F 64% 29.66 in 10.0 mi SE 17.3 mph 25.3 mph N/A   Clear
8:15 PM 82.9 °F 87.7 °F 71.4 °F 68% 29.67 in 10.0 mi SE 17.3 mph 21.9 mph N/A   Clear
8:35 PM 82.6 °F 87.1 °F 71.2 °F 68% 29.67 in 10.0 mi SE 17.3 mph 21.9 mph N/A   Clear
8:55 PM 81.7 °F 86.3 °F 71.8 °F 72% 29.68 in 10.0 mi SE 16.1 mph 23.0 mph N/A   Clear
9:15 PM 81.3 °F 85.9 °F 72.5 °F 74% 29.68 in 10.0 mi SE 15.0 mph 21.9 mph N/A   Clear
9:35 PM 80.6 °F 85.0 °F 72.7 °F 77% 29.68 in 10.0 mi SE 12.7 mph - N/A   Clear
9:55 PM 80.6 °F 85.2 °F 73.2 °F 78% 29.69 in 10.0 mi SE 13.8 mph 18.4 mph N/A   Clear
10:15 PM 80.6 °F 85.4 °F 73.6 °F 79% 29.70 in 10.0 mi SE 15.0 mph 19.6 mph N/A   Clear
10:35 PM 79.9 °F - 73.6 °F 81% 29.72 in 10.0 mi SE 10.4 mph 16.1 mph N/A   Clear
10:55 PM 79.9 °F - 73.6 °F 81% 29.73 in 10.0 mi SE 12.7 mph 17.3 mph N/A   Clear
11:15 PM 79.7 °F - 73.8 °F 82% 29.74 in 10.0 mi SE 13.8 mph - N/A   Clear
11:35 PM 79.3 °F - 73.9 °F 83% 29.76 in 10.0 mi ESE 8.1 mph - N/A   Clear
11:55 PM 79.3 °F - 74.1 °F 84% 29.76 in 10.0 mi ESE 5.8 mph - N/A   Clear